Time,TemperatureF,DewpointF,PressureIn,WindDirection,WindDirectionDegrees,WindSpeedMPH,WindSpeedGustMPH,Humidity,HourlyPrecipIn,Conditions,Clouds,dailyrainin,SoftwareType,DateUTC
2015-01-31 00:04:00,16.2,14.0,30.60,WSW,245,0.0,-999.0,91,-99.99,,,0.02,meteohub,2015-01-31 05:04:00,
2015-01-31 00:09:00,16.0,13.8,30.60,WSW,246,0.0,-999.0,91,-99.99,,,0.02,meteohub,2015-01-31 05:09:00,
2015-01-31 00:14:00,16.0,14.0,30.60,WSW,246,1.0,-999.0,92,-99.99,,,0.02,meteohub,2015-01-31 05:14:00,
2015-01-31 00:19:00,16.2,14.2,30.60,West,262,0.0,-999.0,92,-99.99,,,0.00,meteohub,2015-01-31 05:19:00,
2015-01-31 00:24:00,16.2,14.2,30.60,West,261,0.0,1.0,92,0.00,,,0.00,meteohub,2015-01-31 05:24:00,
2015-01-31 00:29:00,16.0,14.0,30.60,West,262,0.0,1.0,92,0.00,,,0.00,meteohub,2015-01-31 05:29:00,
2015-01-31 00:34:00,15.4,13.5,30.60,West,262,0.0,1.0,92,0.00,,,0.00,meteohub,2015-01-31 05:34:00,
2015-01-31 00:39:00,15.1,13.1,30.60,West,262,0.0,0.0,92,0.00,,,0.00,meteohub,2015-01-31 05:39:00,
2015-01-31 00:44:00,15.1,13.1,30.60,West,262,0.0,0.0,92,0.00,,,0.00,meteohub,2015-01-31 05:44:00,
2015-01-31 00:49:00,15.1,13.1,30.60,West,262,0.0,0.0,92,0.00,,,0.00,meteohub,2015-01-31 05:49:00,
2015-01-31 00:54:00,14.9,12.9,30.59,West,262,0.0,0.0,92,0.00,,,0.00,meteohub,2015-01-31 05:54:00,
2015-01-31 00:59:00,14.7,12.7,30.59,West,262,0.0,0.0,92,0.00,,,0.00,meteohub,2015-01-31 05:59:00,
2015-01-31 01:04:00,15.1,13.1,30.59,West,262,0.0,0.0,92,0.00,,,0.00,meteohub,2015-01-31 06:04:00,
2015-01-31 01:09:00,15.3,13.6,30.59,West,262,0.0,0.0,93,0.00,,,0.00,meteohub,2015-01-31 06:09:00,
2015-01-31 01:14:00,15.3,13.6,30.59,West,262,0.0,0.0,93,0.00,,,0.00,meteohub,2015-01-31 06:14:00,
2015-01-31 01:19:00,15.1,13.5,30.59,West,262,0.0,0.0,93,0.00,,,0.00,meteohub,2015-01-31 06:19:00,
2015-01-31 01:24:00,14.7,12.7,30.59,West,262,0.0,0.0,92,0.00,,,0.00,meteohub,2015-01-31 06:24:00,
2015-01-31 01:29:00,14.5,12.9,30.59,SW,217,0.0,0.0,93,0.00,,,0.00,meteohub,2015-01-31 06:29:00,
2015-01-31 01:34:00,14.5,12.9,30.59,SW,217,0.0,0.0,93,0.00,,,0.00,meteohub,2015-01-31 06:34:00,
2015-01-31 01:39:00,14.5,12.9,30.59,SW,219,0.0,0.0,93,0.00,,,0.00,meteohub,2015-01-31 06:39:00,
2015-01-31 01:44:00,14.5,12.9,30.59,SW,232,0.0,0.0,93,0.00,,,0.00,meteohub,2015-01-31 06:44:00,
2015-01-31 01:49:00,14.7,13.1,30.59,SW,231,0.0,0.0,93,0.00,,,0.00,meteohub,2015-01-31 06:49:00,
2015-01-31 01:54:00,14.7,13.1,30.59,SW,231,0.0,0.0,93,0.00,,,0.00,meteohub,2015-01-31 06:54:00,
2015-01-31 01:59:00,14.5,12.9,30.59,SW,232,0.0,0.0,93,0.00,,,0.00,meteohub,2015-01-31 06:59:00,
2015-01-31 02:04:00,14.4,12.7,30.59,SW,232,0.0,0.0,93,0.00,,,0.00,meteohub,2015-01-31 07:04:00,
2015-01-31 02:09:00,14.4,12.7,30.59,SW,232,0.0,0.0,93,0.00,,,0.00,meteohub,2015-01-31 07:09:00,
2015-01-31 02:14:00,14.4,12.9,30.58,SW,231,0.0,0.0,94,0.00,,,0.00,meteohub,2015-01-31 07:14:00,
2015-01-31 02:20:00,14.5,13.1,30.58,WSW,240,1.0,0.0,94,0.00,,,0.00,meteohub,2015-01-31 07:20:00,
2015-01-31 02:25:00,14.5,13.1,30.58,WSW,243,0.0,1.0,94,0.00,,,0.00,meteohub,2015-01-31 07:25:00,
2015-01-31 02:30:00,14.7,13.3,30.58,WSW,243,0.0,1.0,94,0.00,,,0.00,meteohub,2015-01-31 07:30:00,
2015-01-31 02:35:00,14.9,13.5,30.58,WSW,249,0.0,1.0,94,0.00,,,0.00,meteohub,2015-01-31 07:35:00,
2015-01-31 02:40:00,14.9,13.5,30.58,WSW,249,0.0,1.0,94,0.00,,,0.00,meteohub,2015-01-31 07:40:00,
2015-01-31 02:45:00,14.9,13.5,30.58,SW,231,0.0,0.0,94,0.00,,,0.00,meteohub,2015-01-31 07:45:00,
2015-01-31 02:50:00,14.9,13.5,30.58,SW,231,0.0,1.0,94,0.00,,,0.00,meteohub,2015-01-31 07:50:00,
2015-01-31 02:55:00,14.9,13.5,30.58,SW,231,0.0,1.0,94,0.00,,,0.00,meteohub,2015-01-31 07:55:00,
2015-01-31 03:00:00,15.3,13.8,30.58,SW,231,0.0,1.0,94,0.00,,,0.00,meteohub,2015-01-31 08:00:00,
2015-01-31 03:05:00,15.3,13.8,30.58,SW,231,0.0,1.0,94,0.00,,,0.00,meteohub,2015-01-31 08:05:00,
2015-01-31 03:10:00,15.1,13.6,30.58,SW,231,0.0,1.0,94,0.00,,,0.00,meteohub,2015-01-31 08:10:00,
2015-01-31 03:15:00,14.9,13.5,30.58,WSW,249,0.0,0.0,94,0.00,,,0.00,meteohub,2015-01-31 08:15:00,
2015-01-31 03:20:00,14.7,13.1,30.58,West,259,0.0,0.0,93,0.00,,,0.00,meteohub,2015-01-31 08:20:00,
2015-01-31 03:25:00,14.5,12.9,30.58,West,262,0.0,1.0,93,0.00,,,0.00,meteohub,2015-01-31 08:25:00,
2015-01-31 03:30:00,14.5,12.9,30.58,West,259,0.0,1.0,93,0.00,,,0.00,meteohub,2015-01-31 08:30:00,
2015-01-31 03:35:00,14.5,13.1,30.58,West,262,0.0,1.0,94,0.00,,,0.00,meteohub,2015-01-31 08:35:00,
2015-01-31 03:40:00,14.5,13.1,30.58,West,262,0.0,1.0,94,0.00,,,0.00,meteohub,2015-01-31 08:40:00,
2015-01-31 03:45:00,14.5,13.1,30.58,West,262,0.0,0.0,94,0.00,,,0.00,meteohub,2015-01-31 08:45:00,
2015-01-31 03:50:00,14.4,12.9,30.57,West,260,0.0,0.0,94,0.00,,,0.00,meteohub,2015-01-31 08:50:00,
2015-01-31 03:55:00,14.4,12.9,30.57,West,262,0.0,0.0,94,0.00,,,0.00,meteohub,2015-01-31 08:55:00,
2015-01-31 04:00:00,14.7,13.3,30.57,West,262,0.0,0.0,94,0.00,,,0.00,meteohub,2015-01-31 09:00:00,
2015-01-31 04:05:00,15.1,13.6,30.57,West,262,0.0,0.0,94,0.00,,,0.00,meteohub,2015-01-31 09:05:00,
2015-01-31 04:10:00,15.1,13.6,30.57,West,263,0.0,0.0,94,0.00,,,0.00,meteohub,2015-01-31 09:10:00,
2015-01-31 04:15:00,15.3,13.8,30.57,West,263,0.0,1.0,94,0.00,,,0.00,meteohub,2015-01-31 09:15:00,
2015-01-31 04:20:00,15.1,13.6,30.56,West,264,0.0,1.0,94,0.00,,,0.00,meteohub,2015-01-31 09:20:00,
2015-01-31 04:25:00,14.9,13.5,30.56,West,263,0.0,1.0,94,0.00,,,0.00,meteohub,2015-01-31 09:25:00,
2015-01-31 04:30:00,14.9,13.5,30.56,West,263,0.0,0.0,94,0.00,,,0.00,meteohub,2015-01-31 09:30:00,
2015-01-31 04:35:00,14.9,13.5,30.56,West,263,0.0,0.0,94,0.00,,,0.00,meteohub,2015-01-31 09:35:00,
2015-01-31 04:40:00,14.7,13.3,30.56,West,263,0.0,0.0,94,0.00,,,0.00,meteohub,2015-01-31 09:40:00,
2015-01-31 04:46:00,14.5,13.1,30.56,West,263,0.0,0.0,94,0.00,,,0.00,meteohub,2015-01-31 09:46:00,
2015-01-31 04:51:00,14.4,12.9,30.56,West,263,0.0,0.0,94,0.00,,,0.00,meteohub,2015-01-31 09:51:00,
2015-01-31 04:56:00,14.2,12.7,30.56,West,263,0.0,0.0,94,0.00,,,0.00,meteohub,2015-01-31 09:56:00,
2015-01-31 05:01:00,14.4,12.9,30.56,West,263,0.0,0.0,94,0.00,,,0.00,meteohub,2015-01-31 10:01:00,
2015-01-31 05:06:00,14.5,13.1,30.55,West,263,0.0,0.0,94,0.00,,,0.00,meteohub,2015-01-31 10:06:00,
2015-01-31 05:11:00,14.7,13.3,30.55,West,263,0.0,0.0,94,0.00,,,0.00,meteohub,2015-01-31 10:11:00,
2015-01-31 05:16:00,14.7,13.3,30.55,West,263,0.0,0.0,94,0.00,,,0.00,meteohub,2015-01-31 10:16:00,
2015-01-31 05:21:00,14.7,13.3,30.55,West,263,0.0,0.0,94,0.00,,,0.00,meteohub,2015-01-31 10:21:00,
2015-01-31 05:26:00,14.5,13.1,30.55,West,263,0.0,0.0,94,0.00,,,0.00,meteohub,2015-01-31 10:26:00,
2015-01-31 05:31:00,14.4,12.9,30.55,West,263,0.0,0.0,94,0.00,,,0.00,meteohub,2015-01-31 10:31:00,
2015-01-31 05:36:00,14.4,12.9,30.55,West,263,0.0,0.0,94,0.00,,,0.00,meteohub,2015-01-31 10:36:00,
2015-01-31 05:41:00,14.4,12.9,30.54,West,263,0.0,0.0,94,0.00,,,0.00,meteohub,2015-01-31 10:41:00,
2015-01-31 05:46:00,14.4,12.9,30.54,West,263,0.0,0.0,94,0.00,,,0.00,meteohub,2015-01-31 10:46:00,
2015-01-31 05:51:00,14.2,12.7,30.54,West,263,0.0,0.0,94,0.00,,,0.00,meteohub,2015-01-31 10:51:00,
2015-01-31 05:56:00,14.5,13.1,30.54,West,266,0.0,0.0,94,0.00,,,0.00,meteohub,2015-01-31 10:56:00,
2015-01-31 06:01:00,14.7,13.3,30.54,West,265,0.0,0.0,94,0.00,,,0.00,meteohub,2015-01-31 11:01:00,
2015-01-31 06:06:00,15.1,13.6,30.55,West,266,0.0,1.0,94,0.00,,,0.00,meteohub,2015-01-31 11:06:00,
2015-01-31 06:11:00,15.1,13.6,30.55,West,265,0.0,1.0,94,0.00,,,0.00,meteohub,2015-01-31 11:11:00,
2015-01-31 06:16:00,14.9,13.5,30.55,West,266,0.0,0.0,94,0.00,,,0.00,meteohub,2015-01-31 11:16:00,
2015-01-31 06:21:00,14.7,13.3,30.55,West,266,0.0,0.0,94,0.00,,,0.00,meteohub,2015-01-31 11:21:00,
2015-01-31 06:26:00,14.7,13.3,30.55,West,266,0.0,0.0,94,0.00,,,0.00,meteohub,2015-01-31 11:26:00,
2015-01-31 06:31:00,14.7,13.3,30.55,West,266,0.0,1.0,94,0.00,,,0.00,meteohub,2015-01-31 11:31:00,
2015-01-31 06:36:00,14.7,13.3,30.54,West,266,0.0,1.0,94,0.00,,,0.00,meteohub,2015-01-31 11:36:00,
2015-01-31 06:41:00,14.5,13.1,30.55,West,266,0.0,1.0,94,0.00,,,0.00,meteohub,2015-01-31 11:41:00,
2015-01-31 06:46:00,14.7,13.3,30.55,West,266,0.0,0.0,94,0.00,,,0.00,meteohub,2015-01-31 11:46:00,
2015-01-31 06:51:00,14.7,13.3,30.55,West,269,0.0,0.0,94,0.00,,,0.00,meteohub,2015-01-31 11:51:00,
2015-01-31 06:56:00,14.9,13.5,30.55,West,270,0.0,0.0,94,0.00,,,0.00,meteohub,2015-01-31 11:56:00,
2015-01-31 07:01:00,14.9,13.5,30.55,West,270,0.0,0.0,94,0.00,,,0.00,meteohub,2015-01-31 12:01:00,
2015-01-31 07:06:00,14.7,13.1,30.55,West,270,0.0,0.0,93,0.00,,,0.00,meteohub,2015-01-31 12:06:00,
2015-01-31 07:11:00,14.4,12.7,30.55,West,270,0.0,0.0,93,0.00,,,0.00,meteohub,2015-01-31 12:11:00,
2015-01-31 07:16:00,14.2,12.6,30.56,West,270,0.0,0.0,93,0.00,,,0.00,meteohub,2015-01-31 12:16:00,
2015-01-31 07:21:00,14.2,12.6,30.55,West,270,0.0,0.0,93,0.00,,,0.00,meteohub,2015-01-31 12:21:00,
2015-01-31 07:26:00,14.0,12.4,30.56,West,270,0.0,0.0,93,0.00,,,0.00,meteohub,2015-01-31 12:26:00,
2015-01-31 07:31:00,13.8,12.2,30.56,West,270,0.0,0.0,93,0.00,,,0.00,meteohub,2015-01-31 12:31:00,
2015-01-31 07:37:00,13.6,12.0,30.56,West,270,0.0,0.0,93,0.00,,,0.00,meteohub,2015-01-31 12:37:00,
2015-01-31 07:42:00,13.3,11.7,30.55,West,270,0.0,0.0,93,0.00,,,0.00,meteohub,2015-01-31 12:42:00,
2015-01-31 07:47:00,13.3,11.7,30.55,West,270,0.0,0.0,93,0.00,,,0.00,meteohub,2015-01-31 12:47:00,
2015-01-31 07:52:00,13.3,11.7,30.56,West,270,0.0,0.0,93,0.00,,,0.00,meteohub,2015-01-31 12:52:00,
2015-01-31 07:57:00,13.6,12.0,30.56,West,270,0.0,0.0,93,0.00,,,0.00,meteohub,2015-01-31 12:57:00,
2015-01-31 08:02:00,14.0,12.4,30.56,West,270,0.0,0.0,93,0.00,,,0.00,meteohub,2015-01-31 13:02:00,
2015-01-31 08:07:00,14.7,13.1,30.56,West,270,0.0,0.0,93,0.00,,,0.00,meteohub,2015-01-31 13:07:00,
2015-01-31 08:12:00,15.3,13.6,30.56,West,270,0.0,0.0,93,0.00,,,0.00,meteohub,2015-01-31 13:12:00,
2015-01-31 08:17:00,15.4,13.8,30.56,West,270,0.0,0.0,93,0.00,,,0.00,meteohub,2015-01-31 13:17:00,
2015-01-31 08:22:00,16.0,14.0,30.56,West,269,0.0,0.0,92,0.00,,,0.00,meteohub,2015-01-31 13:22:00,
2015-01-31 08:27:00,17.4,15.8,30.56,West,269,0.0,0.0,93,0.00,,,0.00,meteohub,2015-01-31 13:27:00,
2015-01-31 08:32:00,18.7,17.2,30.56,West,270,0.0,0.0,94,0.00,,,0.00,meteohub,2015-01-31 13:32:00,
2015-01-31 08:37:00,18.7,17.1,30.56,West,270,0.0,0.0,93,0.00,,,0.00,meteohub,2015-01-31 13:37:00,
2015-01-31 08:42:00,18.3,16.3,30.56,West,270,0.0,0.0,92,0.00,,,0.00,meteohub,2015-01-31 13:42:00,
2015-01-31 08:47:00,18.3,16.3,30.56,SW,219,0.0,-999.0,92,0.00,,,0.00,meteohub,2015-01-31 13:47:00,
2015-01-31 08:52:00,18.9,16.9,30.56,SW,232,0.0,-999.0,92,0.00,,,0.00,meteohub,2015-01-31 13:52:00,
2015-01-31 08:57:00,19.6,17.6,30.56,SW,232,0.0,-999.0,92,0.00,,,0.00,meteohub,2015-01-31 13:57:00,
2015-01-31 09:02:00,19.6,17.6,30.56,WSW,249,0.0,-999.0,92,0.00,,,0.00,meteohub,2015-01-31 14:02:00,
2015-01-31 09:07:00,19.9,18.0,30.56,WSW,253,1.0,-999.0,92,0.00,,,0.00,meteohub,2015-01-31 14:07:00,
2015-01-31 09:12:00,20.8,18.9,30.55,SSW,213,5.0,-999.0,92,0.00,,,0.00,meteohub,2015-01-31 14:12:00,
2015-01-31 09:17:00,21.9,19.8,30.55,SSW,207,6.0,-999.0,91,0.00,,,0.00,meteohub,2015-01-31 14:17:00,
2015-01-31 09:22:00,22.6,19.9,30.55,South,181,6.0,-999.0,89,0.00,,,0.00,meteohub,2015-01-31 14:22:00,
2015-01-31 09:27:00,23.4,20.1,30.55,SW,229,5.0,-999.0,87,0.00,,,0.00,meteohub,2015-01-31 14:27:00,
2015-01-31 09:32:00,23.7,19.9,30.55,South,184,7.0,-999.0,85,-99.99,,,0.00,meteohub,2015-01-31 14:32:00,
2015-01-31 09:37:00,24.3,20.1,30.55,South,170,6.0,-999.0,84,-99.99,,,0.00,meteohub,2015-01-31 14:37:00,
2015-01-31 09:42:00,24.6,20.1,30.56,SW,229,5.0,-999.0,83,-99.99,,,0.00,meteohub,2015-01-31 14:42:00,
2015-01-31 09:47:00,24.6,19.6,30.56,SW,235,3.0,-999.0,81,-99.99,,,0.00,meteohub,2015-01-31 14:47:00,
2015-01-31 09:52:00,25.2,20.1,30.56,SW,218,5.0,-999.0,81,-99.99,,,0.00,meteohub,2015-01-31 14:52:00,
2015-01-31 09:57:00,25.5,20.3,30.56,South,176,8.0,-999.0,80,-99.99,,,0.00,meteohub,2015-01-31 14:57:00,
2015-01-31 10:02:00,26.1,20.5,30.56,SW,222,4.0,-999.0,79,-99.99,,,0.00,meteohub,2015-01-31 15:02:00,
2015-01-31 10:07:00,26.4,20.5,30.56,WSW,250,4.0,-999.0,78,-99.99,,,0.00,meteohub,2015-01-31 15:07:00,
2015-01-31 10:12:00,26.8,20.5,30.56,SSW,212,11.0,-999.0,77,-99.99,,,0.00,meteohub,2015-01-31 15:12:00,
2015-01-31 10:17:00,27.0,20.7,30.56,SSW,208,6.0,-999.0,77,-99.99,,,0.00,meteohub,2015-01-31 15:17:00,
2015-01-31 10:22:00,27.1,20.8,30.56,WSW,240,3.0,-999.0,77,-99.99,,,0.00,meteohub,2015-01-31 15:22:00,
2015-01-31 10:27:00,27.1,20.7,30.56,South,174,3.0,-999.0,76,-99.99,,,0.00,meteohub,2015-01-31 15:27:00,
2015-01-31 10:32:00,27.3,20.8,30.56,South,181,6.0,-999.0,76,-99.99,,,0.00,meteohub,2015-01-31 15:32:00,
2015-01-31 10:37:00,27.7,21.0,30.56,SW,235,9.0,-999.0,76,-99.99,,,0.00,meteohub,2015-01-31 15:37:00,
2015-01-31 10:42:00,27.9,21.2,30.56,SSE,162,3.0,-999.0,76,-99.99,,,0.00,meteohub,2015-01-31 15:42:00,
2015-01-31 10:47:00,28.2,21.4,30.56,SW,233,5.0,-999.0,75,-99.99,,,0.00,meteohub,2015-01-31 15:47:00,
2015-01-31 10:52:00,28.8,21.6,30.56,South,190,6.0,-999.0,74,-99.99,,,0.00,meteohub,2015-01-31 15:52:00,
2015-01-31 10:57:00,29.1,21.9,30.56,SSE,162,10.0,-999.0,74,-99.99,,,0.00,meteohub,2015-01-31 15:57:00,
2015-01-31 11:02:00,29.5,21.6,30.56,SW,219,11.0,-999.0,72,-99.99,,,0.00,meteohub,2015-01-31 16:02:00,
2015-01-31 11:07:00,29.7,21.7,30.56,SSW,197,6.0,-999.0,72,-99.99,,,0.00,meteohub,2015-01-31 16:07:00,
2015-01-31 11:12:00,30.0,22.1,30.55,SSW,210,6.0,-999.0,72,-99.99,,,0.00,meteohub,2015-01-31 16:12:00,
2015-01-31 11:17:00,30.4,22.1,30.55,SW,226,9.0,-999.0,71,-99.99,,,0.00,meteohub,2015-01-31 16:17:00,
2015-01-31 11:22:00,30.6,21.9,30.55,SSW,204,8.0,-999.0,70,-99.99,,,0.00,meteohub,2015-01-31 16:22:00,
2015-01-31 11:27:00,30.9,22.3,30.55,SSW,201,11.0,-999.0,70,-99.99,,,0.00,meteohub,2015-01-31 16:27:00,
2015-01-31 11:32:00,31.1,22.1,30.54,SW,229,10.0,-999.0,69,-99.99,,,0.00,meteohub,2015-01-31 16:32:00,
2015-01-31 11:37:00,31.5,22.5,30.54,SSW,197,13.0,-999.0,69,-99.99,,,0.00,meteohub,2015-01-31 16:37:00,
2015-01-31 11:42:00,31.6,22.3,30.53,SSW,210,11.0,-999.0,68,-99.99,,,0.00,meteohub,2015-01-31 16:42:00,
2015-01-31 11:47:00,32.0,23.0,30.53,SSW,210,5.0,-999.0,69,-99.99,,,0.00,meteohub,2015-01-31 16:47:00,
2015-01-31 11:52:00,32.2,22.5,30.53,SSW,210,10.0,-999.0,67,-99.99,,,0.00,meteohub,2015-01-31 16:52:00,
2015-01-31 11:57:00,32.4,23.0,30.53,SSW,210,5.0,-999.0,68,-99.99,,,0.00,meteohub,2015-01-31 16:57:00,
2015-01-31 12:02:00,32.5,22.5,30.53,SSW,204,8.0,-999.0,66,-99.99,,,0.00,meteohub,2015-01-31 17:02:00,
2015-01-31 12:07:00,32.4,22.3,30.53,SW,218,7.0,-999.0,66,-99.99,,,0.00,meteohub,2015-01-31 17:07:00,
2015-01-31 12:12:00,32.5,22.8,30.52,SSW,197,9.0,-999.0,67,-99.99,,,0.00,meteohub,2015-01-31 17:12:00,
2015-01-31 12:17:00,33.1,23.4,30.52,SW,218,5.0,-999.0,67,-99.99,,,0.00,meteohub,2015-01-31 17:17:00,
2015-01-31 12:22:00,33.6,23.2,30.52,SW,233,14.0,-999.0,65,-99.99,,,0.00,meteohub,2015-01-31 17:22:00,
2015-01-31 12:27:00,33.3,22.5,30.51,WSW,243,5.0,-999.0,64,-99.99,,,0.00,meteohub,2015-01-31 17:27:00,
2015-01-31 12:32:00,33.6,22.8,30.51,WSW,252,5.0,-999.0,64,-99.99,,,0.00,meteohub,2015-01-31 17:32:00,
2015-01-31 12:37:00,33.4,22.6,30.51,SSW,210,9.0,-999.0,64,-99.99,,,0.00,meteohub,2015-01-31 17:37:00,
2015-01-31 12:42:00,33.8,23.4,30.51,SW,233,6.0,-999.0,65,-99.99,,,0.00,meteohub,2015-01-31 17:42:00,
2015-01-31 12:47:00,34.0,22.6,30.50,West,263,8.0,-999.0,63,-99.99,,,0.00,meteohub,2015-01-31 17:47:00,
2015-01-31 12:52:00,34.2,22.8,30.50,WSW,243,7.0,-999.0,63,-99.99,,,0.00,meteohub,2015-01-31 17:52:00,
2015-01-31 12:57:00,34.5,23.5,30.50,SW,215,7.0,-999.0,64,-99.99,,,0.00,meteohub,2015-01-31 17:57:00,
2015-01-31 13:02:00,34.9,23.5,30.49,SSW,207,5.0,-999.0,63,-99.99,,,0.00,meteohub,2015-01-31 18:02:00,
2015-01-31 13:07:00,34.9,23.5,30.49,WSW,243,11.0,-999.0,63,-99.99,,,0.00,meteohub,2015-01-31 18:07:00,
2015-01-31 13:12:00,34.3,22.6,30.49,West,278,10.0,-999.0,62,-99.99,,,0.00,meteohub,2015-01-31 18:12:00,
2015-01-31 13:17:00,34.3,23.0,30.48,West,266,9.0,-999.0,63,-99.99,,,0.00,meteohub,2015-01-31 18:17:00,
2015-01-31 13:22:00,34.3,23.0,30.48,WSW,249,8.0,-999.0,63,-99.99,,,0.00,meteohub,2015-01-31 18:22:00,
2015-01-31 13:27:00,34.9,23.9,30.48,SW,236,8.0,-999.0,64,-99.99,,,0.00,meteohub,2015-01-31 18:27:00,
2015-01-31 13:32:00,35.1,23.4,30.48,WSW,257,10.0,-999.0,62,-99.99,,,0.00,meteohub,2015-01-31 18:32:00,
2015-01-31 13:37:00,35.2,24.3,30.48,WSW,243,8.0,-999.0,64,-99.99,,,0.00,meteohub,2015-01-31 18:37:00,
2015-01-31 13:42:00,35.4,24.1,30.48,WSW,245,10.0,-999.0,63,-99.99,,,0.00,meteohub,2015-01-31 18:42:00,
2015-01-31 13:47:00,35.4,23.7,30.48,SSW,212,11.0,-999.0,62,-99.99,,,0.00,meteohub,2015-01-31 18:47:00,
2015-01-31 13:52:00,35.6,23.9,30.48,SSW,200,6.0,-999.0,62,-99.99,,,0.00,meteohub,2015-01-31 18:52:00,
2015-01-31 13:57:00,35.8,23.7,30.47,SW,215,8.0,13.0,61,0.00,,,0.00,meteohub,2015-01-31 18:57:00,
2015-01-31 14:02:00,36.0,24.3,30.47,South,177,8.0,13.0,62,0.00,,,0.00,meteohub,2015-01-31 19:02:00,
2015-01-31 14:07:00,36.3,24.1,30.47,West,271,5.0,13.0,61,0.00,,,0.00,meteohub,2015-01-31 19:07:00,
2015-01-31 14:12:00,36.3,24.1,30.46,West,266,4.0,10.0,61,0.00,,,0.00,meteohub,2015-01-31 19:12:00,
2015-01-31 14:17:00,36.7,24.4,30.46,SW,236,6.0,-999.0,61,0.00,,,0.00,meteohub,2015-01-31 19:17:00,
2015-01-31 14:22:00,36.7,24.1,30.46,WSW,255,11.0,-999.0,60,0.00,,,0.00,meteohub,2015-01-31 19:22:00,
2015-01-31 14:27:00,36.3,24.1,30.46,SW,226,13.0,-999.0,61,0.00,,,0.00,meteohub,2015-01-31 19:27:00,
2015-01-31 14:32:00,36.3,24.1,30.46,South,188,3.0,-999.0,61,0.00,,,0.00,meteohub,2015-01-31 19:32:00,
2015-01-31 14:37:00,36.5,23.9,30.46,SW,228,8.0,-999.0,60,0.00,,,0.00,meteohub,2015-01-31 19:37:00,
2015-01-31 14:42:00,36.5,23.9,30.45,West,259,6.0,-999.0,60,0.00,,,0.00,meteohub,2015-01-31 19:42:00,
2015-01-31 14:47:00,36.5,24.3,30.45,SW,226,9.0,-999.0,61,0.00,,,0.00,meteohub,2015-01-31 19:47:00,
2015-01-31 14:52:00,36.7,24.1,30.45,WSW,246,9.0,-999.0,60,0.00,,,0.00,meteohub,2015-01-31 19:52:00,
2015-01-31 14:57:00,36.7,23.7,30.45,SSW,207,6.0,-999.0,59,0.00,,,0.00,meteohub,2015-01-31 19:57:00,
2015-01-31 15:02:00,36.7,23.7,30.45,WSW,246,7.0,-999.0,59,-99.99,,,0.00,meteohub,2015-01-31 20:02:00,
2015-01-31 15:07:00,36.7,23.7,30.45,WSW,240,9.0,-999.0,59,-99.99,,,0.00,meteohub,2015-01-31 20:07:00,
2015-01-31 15:12:00,36.5,23.9,30.45,South,188,3.0,-999.0,60,-99.99,,,0.00,meteohub,2015-01-31 20:12:00,
2015-01-31 15:17:00,36.7,24.1,30.45,SW,232,9.0,-999.0,60,-99.99,,,0.00,meteohub,2015-01-31 20:17:00,
2015-01-31 15:22:00,36.9,24.6,30.45,WSW,245,9.0,-999.0,61,-99.99,,,0.00,meteohub,2015-01-31 20:22:00,
2015-01-31 15:27:00,36.7,23.7,30.45,SSW,211,10.0,-999.0,59,-99.99,,,0.00,meteohub,2015-01-31 20:27:00,
2015-01-31 15:32:00,36.7,24.1,30.45,South,186,7.0,-999.0,60,-99.99,,,0.00,meteohub,2015-01-31 20:32:00,
2015-01-31 15:37:00,36.5,23.2,30.44,WSW,239,8.0,-999.0,58,-99.99,,,0.00,meteohub,2015-01-31 20:37:00,
2015-01-31 15:42:00,36.5,23.5,30.44,WSW,239,11.0,-999.0,59,-99.99,,,0.00,meteohub,2015-01-31 20:42:00,
2015-01-31 15:47:00,36.5,23.5,30.44,SW,221,7.0,-999.0,59,-99.99,,,0.00,meteohub,2015-01-31 20:47:00,
2015-01-31 15:52:00,36.5,23.9,30.44,South,188,4.0,-999.0,60,-99.99,,,0.00,meteohub,2015-01-31 20:52:00,
2015-01-31 15:57:00,36.7,24.1,30.43,SW,220,8.0,-999.0,60,-99.99,,,0.00,meteohub,2015-01-31 20:57:00,
2015-01-31 16:02:00,36.3,23.4,30.43,SW,221,7.0,-999.0,59,-99.99,,,0.00,meteohub,2015-01-31 21:02:00,
2015-01-31 16:07:00,36.3,23.4,30.43,SSW,212,7.0,-999.0,59,-99.99,,,0.00,meteohub,2015-01-31 21:07:00,
2015-01-31 16:12:00,36.3,23.7,30.43,SW,215,8.0,-999.0,60,-99.99,,,0.00,meteohub,2015-01-31 21:12:00,
2015-01-31 16:17:00,36.3,23.7,30.43,SW,218,4.0,-999.0,60,-99.99,,,0.00,meteohub,2015-01-31 21:17:00,
2015-01-31 16:22:00,36.3,23.7,30.43,South,187,6.0,-999.0,60,-99.99,,,0.00,meteohub,2015-01-31 21:22:00,
2015-01-31 16:27:00,36.3,23.7,30.43,SSW,210,5.0,-999.0,60,-99.99,,,0.00,meteohub,2015-01-31 21:27:00,
2015-01-31 16:32:00,36.3,23.7,30.43,SSW,204,6.0,-999.0,60,-99.99,,,0.00,meteohub,2015-01-31 21:32:00,
2015-01-31 16:37:00,36.1,23.5,30.43,SSW,193,4.0,-999.0,60,-99.99,,,0.00,meteohub,2015-01-31 21:37:00,
2015-01-31 16:42:00,36.1,24.1,30.43,SSW,210,7.0,-999.0,61,-99.99,,,0.00,meteohub,2015-01-31 21:42:00,
2015-01-31 16:47:00,36.1,24.1,30.43,WSW,245,6.0,-999.0,61,-99.99,,,0.00,meteohub,2015-01-31 21:47:00,
2015-01-31 16:52:00,36.1,24.1,30.42,SSE,168,7.0,-999.0,61,-99.99,,,0.00,meteohub,2015-01-31 21:52:00,
2015-01-31 16:57:00,36.0,23.9,30.42,South,173,7.0,-999.0,61,-99.99,,,0.00,meteohub,2015-01-31 21:57:00,
2015-01-31 17:02:00,36.0,23.9,30.42,South,181,3.0,-999.0,61,-99.99,,,0.00,meteohub,2015-01-31 22:02:00,
2015-01-31 17:07:00,36.0,24.3,30.42,SSE,167,6.0,-999.0,62,-99.99,,,0.00,meteohub,2015-01-31 22:07:00,
2015-01-31 17:12:00,35.8,24.1,30.42,SW,217,7.0,-999.0,62,-99.99,,,0.00,meteohub,2015-01-31 22:12:00,
2015-01-31 17:17:00,35.8,24.1,30.42,SSW,197,2.0,-999.0,62,-99.99,,,0.00,meteohub,2015-01-31 22:17:00,
2015-01-31 17:22:00,35.8,24.1,30.43,SSW,200,3.0,-999.0,62,-99.99,,,0.00,meteohub,2015-01-31 22:22:00,
2015-01-31 17:27:00,35.8,24.1,30.43,SW,219,6.0,-999.0,62,-99.99,,,0.00,meteohub,2015-01-31 22:27:00,
2015-01-31 17:32:00,35.6,24.3,30.43,SSW,212,3.0,-999.0,63,-99.99,,,0.00,meteohub,2015-01-31 22:32:00,
2015-01-31 17:37:00,35.4,24.1,30.43,SSW,212,3.0,-999.0,63,-99.99,,,0.00,meteohub,2015-01-31 22:37:00,
2015-01-31 17:42:00,35.4,24.1,30.43,South,177,3.0,-999.0,63,-99.99,,,0.00,meteohub,2015-01-31 22:42:00,
2015-01-31 17:47:00,35.2,24.3,30.43,South,172,2.0,-999.0,64,-99.99,,,0.00,meteohub,2015-01-31 22:47:00,
2015-01-31 17:52:00,35.2,24.3,30.43,SSW,197,2.0,-999.0,64,-99.99,,,0.00,meteohub,2015-01-31 22:52:00,
2015-01-31 17:57:00,35.1,24.1,30.43,SSW,204,1.0,-999.0,64,-99.99,,,0.00,meteohub,2015-01-31 22:57:00,
2015-01-31 18:02:00,35.1,24.4,30.44,South,172,1.0,-999.0,65,-99.99,,,0.00,meteohub,2015-01-31 23:02:00,